| time (UTC) | temp C | wind direction | speed KPH | gust KPH | rain 1hr cm | rain 24hr cm | rain mn cm | humidity % | barometer mb |
| 20260502183504 | 14 | 85 | 4.8 | 14.5 | 0.00 | 0.00 | 0.00 | 41 | 1014.6 |
| 20260502182504 | 14 | 152 | 3.2 | 9.7 | 0.00 | 0.00 | 0.00 | 41 | 1014.6 |
| 20260502182003 | 14 | 143 | 6.4 | 11.3 | 0.00 | 0.00 | 0.00 | 40 | 1014.7 |
| 20260502181504 | 14 | 151 | 3.2 | 19.3 | 0.00 | 0.00 | 0.00 | 40 | 1014.9 |
| 20260502181004 | 14 | 209 | 9.7 | 24.1 | 0.00 | 0.00 | 0.00 | 41 | 1014.9 |
| 20260502170502 | 13 | 111 | 11.3 | 20.9 | 0.00 | 0.00 | 0.00 | 37 | 1015.8 |
| 20260502164002 | 13 | 183 | 8.0 | 16.1 | 0.00 | 0.00 | 0.00 | 42 | 1016.2 |
| 20260502163003 | 12 | 27 | 12.9 | 25.7 | 0.00 | 0.00 | 0.00 | 38 | 1016.3 |
| 20260502162503 | 12 | 145 | 3.2 | 9.7 | 0.00 | 0.00 | 0.00 | 41 | 1016.4 |
| 20260502162003 | 12 | 41 | 6.4 | 12.9 | 0.00 | 0.00 | 0.00 | 42 | 1016.5 |
| 20260502161503 | 12 | 149 | 4.8 | 24.1 | 0.00 | 0.00 | 0.00 | 40 | 1016.6 |
| 20260502161003 | 12 | 211 | 19.3 | 32.2 | 0.00 | 0.00 | 0.00 | 40 | 1016.8 |
| 20260502160503 | 12 | 105 | 1.6 | 9.7 | 0.00 | 0.00 | 0.00 | 48 | 1016.7 |
| 20260502152003 | 10 | 69 | 12.9 | 14.5 | 0.00 | 0.00 | 0.00 | 46 | 1016.9 |
| 20260502151502 | 10 | 102 | 8.0 | 12.9 | 0.00 | 0.00 | 0.00 | 48 | 1017.0 |
| 20260502151002 | 10 | 97 | 4.8 | 16.1 | 0.00 | 0.00 | 0.00 | 50 | 1017.0 |
| 20260502130502 | 8 | 166 | 4.8 | 9.7 | 0.00 | 0.00 | 0.00 | 54 | 1017.0 |
| 20260502123503 | 8 | 355 | 1.6 | 9.7 | 0.00 | 0.00 | 0.00 | 53 | 1016.8 |
| 20260502123003 | 8 | 326 | 8.0 | 14.5 | 0.00 | 0.00 | 0.00 | 54 | 1016.8 |
| 20260502122503 | 8 | 170 | 4.8 | 9.7 | 0.00 | 0.00 | 0.00 | 54 | 1016.9 |
| 20260502122003 | 8 | 160 | 6.4 | 12.9 | 0.00 | 0.00 | 0.00 | 54 | 1016.9 |
| 20260502121502 | 8 | 208 | 1.6 | 11.3 | 0.00 | 0.00 | 0.00 | 54 | 1016.9 |
| 20260502120503 | 7 | 224 | 4.8 | 11.3 | 0.00 | 0.00 | 0.00 | 53 | 1016.8 |
| 20260502115503 | 8 | 169 | 3.2 | 9.7 | 0.00 | 0.00 | 0.00 | 53 | 1016.7 |
| 20260502115003 | 8 | 189 | 1.6 | 11.3 | 0.00 | 0.00 | 0.00 | 53 | 1016.7 |
| 20260502114503 | 8 | 215 | 1.6 | 4.8 | 0.00 | 0.00 | 0.00 | 52 | 1016.7 |
| 20260502113503 | 8 | 85 | 3.2 | 9.7 | 0.00 | 0.00 | 0.00 | 52 | 1016.3 |
| 20260502113003 | 8 | 35 | 0.0 | 1.6 | 0.00 | 0.00 | 0.00 | 54 | 1016.3 |
| 20260502112503 | 8 | 64 | 1.6 | 8.0 | 0.00 | 0.00 | 0.00 | 52 | 1016.2 |
| 20260502112003 | 8 | 211 | 1.6 | 8.0 | 0.00 | 0.00 | 0.00 | 54 | 1016.4 |
| 20260502111503 | 8 | 236 | 0.0 | 4.8 | 0.00 | 0.00 | 0.00 | 52 | 1016.3 |
| 20260502111002 | 8 | 68 | 0.0 | 0.0 | 0.00 | 0.00 | 0.00 | 53 | 1016.3 |
| 20260502110503 | 8 | 68 | 0.0 | 3.2 | 0.00 | 0.00 | 0.00 | 53 | 1016.4 |
| 20260502110003 | 8 | 233 | 4.8 | 12.9 | 0.00 | 0.00 | 0.00 | 52 | 1016.3 |
| 20260502105502 | 8 | 265 | 0.0 | 0.0 | 0.00 | 0.00 | 0.00 | 53 | 1016.1 |
| 20260502104502 | 8 | 298 | 1.6 | 1.6 | 0.00 | 0.00 | 0.00 | 53 | 1016.2 |
| 20260502104003 | 8 | 318 | 0.0 | 0.0 | 0.00 | 0.00 | 0.00 | 53 | 1016.4 |
| 20260502103503 | 8 | 318 | 0.0 | 0.0 | 0.00 | 0.00 | 0.00 | 52 | 1016.4 |
| 20260502102503 | 8 | 208 | 0.0 | 1.6 | 0.00 | 0.00 | 0.00 | 50 | 1016.4 |
| 20260502102002 | 8 | 202 | 0.0 | 3.2 | 0.00 | 0.00 | 0.00 | 51 | 1016.4 |
| 20260502100502 | 8 | 270 | 1.6 | 8.0 | 0.00 | 0.00 | 0.00 | 51 | 1016.5 |
| 20260502091503 | 8 | 205 | 4.8 | 12.9 | 0.00 | 0.00 | 0.00 | 54 | 1016.2 |
| 20260502091003 | 8 | 328 | 11.3 | 20.9 | 0.00 | 0.00 | 0.00 | 54 | 1016.0 |
| 20260502090503 | 8 | 222 | 17.7 | 22.5 | 0.00 | 0.00 | 0.00 | 54 | 1016.0 |
| 20260502071503 | 10 | 195 | 0.0 | 4.8 | 0.00 | 0.00 | 0.00 | 64 | 1015.8 |
| 20260502071002 | 10 | 165 | 1.6 | 3.2 | 0.00 | 0.00 | 0.00 | 64 | 1015.8 |
| 20260502070503 | 10 | 353 | 0.0 | 9.7 | 0.00 | 0.00 | 0.00 | 64 | 1015.9 |
| 20260502070003 | 10 | 209 | 1.6 | 8.0 | 0.00 | 0.00 | 0.00 | 64 | 1015.8 |
| 20260502065503 | 10 | 213 | 0.0 | 11.3 | 0.00 | 0.00 | 0.00 | 63 | 1015.9 |
| 20260502065003 | 10 | 203 | 3.2 | 12.9 | 0.00 | 0.00 | 0.00 | 62 | 1015.8 |
| 20260502064503 | 10 | 117 | 1.6 | 12.9 | 0.00 | 0.00 | 0.00 | 63 | 1015.8 |
| 20260502064003 | 10 | 141 | 0.0 | 0.0 | 0.00 | 0.00 | 0.00 | 62 | 1015.8 |
| 20260502063503 | 10 | 141 | 0.0 | 4.8 | 0.00 | 0.00 | 0.00 | 63 | 1015.9 |
| 20260502063003 | 10 | 63 | 4.8 | 8.0 | 0.00 | 0.00 | 0.00 | 62 | 1016.0 |
| 20260502062503 | 10 | 195 | 0.0 | 0.0 | 0.00 | 0.00 | 0.00 | 62 | 1016.1 |
| 20260502061003 | 10 | 295 | 1.6 | 8.0 | 0.00 | 0.00 | 0.00 | 60 | 1016.0 |
| 20260502060503 | 10 | 110 | 0.0 | 3.2 | 0.00 | 0.00 | 0.00 | 60 | 1016.1 |
| 20260502055503 | 11 | 346 | 0.0 | 0.0 | 0.00 | 0.00 | 0.00 | 62 | 1016.2 |
| 20260502055003 | 11 | 346 | 0.0 | 0.0 | 0.00 | 0.00 | 0.00 | 62 | 1016.1 |
| 20260502053503 | 11 | 346 | 0.0 | 1.6 | 0.00 | 0.00 | 0.00 | 61 | 1016.0 |
| 20260502053003 | 11 | 256 | 0.0 | 9.7 | 0.00 | 0.00 | 0.00 | 62 | 1015.9 |
| 20260502052503 | 11 | 199 | 3.2 | 8.0 | 0.00 | 0.00 | 0.00 | 62 | 1016.0 |
| 20260502051503 | 11 | 240 | 0.0 | 0.0 | 0.00 | 0.00 | 0.00 | 62 | 1015.9 |
| 20260502051003 | 11 | 240 | 0.0 | 0.0 | 0.00 | 0.00 | 0.00 | 62 | 1015.9 |
| 20260502050503 | 11 | 240 | 0.0 | 0.0 | 0.00 | 0.00 | 0.00 | 61 | 1016.0 |
| 20260502050003 | 11 | 240 | 0.0 | 0.0 | 0.00 | 0.00 | 0.00 | 61 | 1016.0 |
| 20260502045503 | 11 | 240 | 1.6 | 3.2 | 0.00 | 0.00 | 0.00 | 61 | 1016.0 |
| 20260502045003 | 11 | 210 | 3.2 | 8.0 | 0.00 | 0.00 | 0.00 | 60 | 1016.1 |
| 20260502044503 | 11 | 165 | 3.2 | 8.0 | 0.00 | 0.00 | 0.00 | 60 | 1016.1 |
| 20260502044003 | 11 | 78 | 0.0 | 4.8 | 0.00 | 0.00 | 0.00 | 61 | 1016.0 |
| 20260502043503 | 12 | 205 | 3.2 | 3.2 | 0.00 | 0.00 | 0.00 | 61 | 1015.9 |
| 20260502043004 | 12 | 65 | 0.0 | 0.0 | 0.00 | 0.00 | 0.00 | 60 | 1015.7 |
| 20260502042504 | 12 | 65 | 0.0 | 0.0 | 0.00 | 0.00 | 0.00 | 60 | 1015.8 |
| 20260502042003 | 12 | 65 | 0.0 | 0.0 | 0.00 | 0.00 | 0.00 | 60 | 1015.8 |
| 20260502041503 | 12 | 65 | 1.6 | 3.2 | 0.00 | 0.00 | 0.00 | 60 | 1015.8 |
| 20260502041003 | 12 | 175 | 0.0 | 11.3 | 0.00 | 0.00 | 0.00 | 60 | 1015.7 |
| 20260502040503 | 12 | 128 | 3.2 | 9.7 | 0.00 | 0.00 | 0.00 | 59 | 1015.7 |
| 20260502040004 | 12 | 71 | 1.6 | 8.0 | 0.00 | 0.00 | 0.00 | 59 | 1015.7 |
| 20260502035503 | 12 | 125 | 3.2 | 11.3 | 0.00 | 0.00 | 0.00 | 59 | 1015.7 |
| 20260502035004 | 12 | 209 | 4.8 | 8.0 | 0.00 | 0.00 | 0.00 | 60 | 1015.7 |
| 20260502034504 | 12 | 230 | 1.6 | 9.7 | 0.00 | 0.00 | 0.00 | 58 | 1015.7 |
| 20260502033503 | 12 | 162 | 8.0 | 11.3 | 0.00 | 0.00 | 0.00 | 58 | 1015.6 |
| 20260502033003 | 12 | 210 | 4.8 | 19.3 | 0.00 | 0.00 | 0.00 | 57 | 1015.5 |
| 20260502032503 | 12 | 199 | 12.9 | 20.9 | 0.00 | 0.00 | 0.00 | 57 | 1015.4 |
| 20260502032003 | 12 | 231 | 8.0 | 12.9 | 0.00 | 0.00 | 0.00 | 56 | 1015.4 |
| 20260502031503 | 13 | 228 | 9.7 | 12.9 | 0.00 | 0.00 | 0.00 | 56 | 1015.3 |
| 20260502031004 | 13 | 282 | 9.7 | 12.9 | 0.00 | 0.00 | 0.00 | 55 | 1015.3 |
| 20260502030503 | 13 | 253 | 9.7 | 16.1 | 0.00 | 0.00 | 0.00 | 54 | 1015.2 |
| 20260502030003 | 13 | 286 | 14.5 | 24.1 | 0.00 | 0.00 | 0.00 | 53 | 1015.1 |
| 20260502025003 | 13 | 327 | 8.0 | 20.9 | 0.00 | 0.00 | 0.00 | 52 | 1015.3 |
| 20260502024503 | 13 | 273 | 4.8 | 8.0 | 0.00 | 0.00 | 0.00 | 52 | 1015.3 |
| 20260502024003 | 13 | 286 | 4.8 | 9.7 | 0.00 | 0.00 | 0.00 | 50 | 1015.2 |
| 20260502023003 | 13 | 231 | 4.8 | 16.1 | 0.00 | 0.00 | 0.00 | 50 | 1014.9 |
| 20260502022003 | 13 | 206 | 8.0 | 14.5 | 0.00 | 0.00 | 0.00 | 50 | 1014.6 |
| 20260502021003 | 14 | 250 | 1.6 | 3.2 | 0.00 | 0.00 | 0.00 | 56 | 1014.4 |
| 20260502020503 | 14 | 335 | 0.0 | 3.2 | 0.00 | 0.00 | 0.00 | 57 | 1014.1 |
| 20260502020003 | 14 | 339 | 0.0 | 3.2 | 0.00 | 0.00 | 0.00 | 56 | 1014.0 |
| 20260502015004 | 14 | 44 | 1.6 | 11.3 | 0.00 | 0.00 | 0.00 | 55 | 1014.1 |
| 20260502014504 | 13 | 349 | 1.6 | 9.7 | 0.00 | 0.00 | 0.00 | 56 | 1013.9 |
| 20260502014004 | 13 | 297 | 1.6 | 8.0 | 0.00 | 0.00 | 0.00 | 56 | 1013.9 |
| 20260502013503 | 13 | 232 | 4.8 | 9.7 | 0.00 | 0.00 | 0.00 | 56 | 1013.9 |
| 20260502012503 | 13 | 322 | 4.8 | 9.7 | 0.00 | 0.00 | 0.00 | 56 | 1013.7 |
| 20260502012003 | 13 | 220 | 4.8 | 8.0 | 0.00 | 0.00 | 0.00 | 56 | 1013.5 |
| 20260502011503 | 13 | 220 | 8.0 | 14.5 | 0.00 | 0.00 | 0.00 | 55 | 1013.5 |
| 20260502011003 | 13 | 226 | 8.0 | 9.7 | 0.00 | 0.00 | 0.00 | 56 | 1013.5 |
| 20260502010503 | 13 | 230 | 4.8 | 8.0 | 0.00 | 0.00 | 0.00 | 57 | 1013.4 |
| 20260502010003 | 14 | 220 | 4.8 | 4.8 | 0.00 | 0.00 | 0.00 | 57 | 1013.4 |
| 20260502005503 | 14 | 255 | 4.8 | 4.8 | 0.00 | 0.00 | 0.00 | 56 | 1013.3 |
| 20260502004003 | 14 | 212 | 4.8 | 9.7 | 0.00 | 0.00 | 0.00 | 53 | 1013.0 |
| 20260502003504 | 15 | 240 | 4.8 | 8.0 | 0.00 | 0.00 | 0.00 | 53 | 1012.9 |
| 20260502003003 | 15 | 241 | 4.8 | 9.7 | 0.00 | 0.00 | 0.00 | 54 | 1012.8 |
| 20260502002503 | 15 | 221 | 9.7 | 12.9 | 0.00 | 0.00 | 0.00 | 54 | 1012.8 |
| 20260502002004 | 15 | 267 | 4.8 | 8.0 | 0.00 | 0.00 | 0.00 | 55 | 1012.7 |
| 20260502000503 | 15 | 252 | 11.3 | 14.5 | 0.00 | 0.00 | 0.00 | 51 | 1012.4 |
| 20260502000003 | 15 | 274 | 11.3 | 20.9 | 0.00 | 0.00 | 0.00 | 50 | 1012.2 |
| 20260501235003 | 15 | 235 | 9.7 | 12.9 | 0.00 | 0.00 | 0.00 | 50 | 1011.9 |
| 20260501234504 | 15 | 213 | 8.0 | 9.7 | 0.00 | 0.00 | 0.00 | 50 | 1011.8 |
| 20260501233503 | 16 | 221 | 9.7 | 14.5 | 0.00 | 0.00 | 0.00 | 49 | 1011.9 |
| 20260501233004 | 16 | 250 | 8.0 | 11.3 | 0.00 | 0.00 | 0.00 | 49 | 1011.9 |
| 20260501232503 | 16 | 250 | 8.0 | 14.5 | 0.00 | 0.00 | 0.00 | 49 | 1011.8 |
| 20260501232003 | 16 | 261 | 9.7 | 11.3 | 0.00 | 0.00 | 0.00 | 48 | 1011.9 |
| 20260501231503 | 16 | 186 | 11.3 | 20.9 | 0.00 | 0.00 | 0.00 | 48 | 1011.9 |
| 20260501231004 | 16 | 252 | 11.3 | 19.3 | 0.00 | 0.00 | 0.00 | 47 | 1011.9 |
| 20260501230504 | 16 | 227 | 9.7 | 14.5 | 0.00 | 0.00 | 0.00 | 47 | 1011.9 |
| 20260501230003 | 16 | 243 | 8.0 | 11.3 | 0.00 | 0.00 | 0.00 | 46 | 1011.9 |
| 20260501225503 | 16 | 256 | 16.1 | 20.9 | 0.00 | 0.00 | 0.00 | 46 | 1011.9 |
| 20260501225004 | 16 | 254 | 3.2 | 11.3 | 0.00 | 0.00 | 0.00 | 45 | 1011.8 |
| 20260501224503 | 17 | 208 | 8.0 | 11.3 | 0.00 | 0.00 | 0.00 | 46 | 1011.8 |
| 20260501224004 | 17 | 241 | 9.7 | 16.1 | 0.00 | 0.00 | 0.00 | 45 | 1011.8 |
| 20260501223004 | 17 | 205 | 16.1 | 25.7 | 0.00 | 0.00 | 0.00 | 44 | 1011.8 |
| 20260501222503 | 17 | 301 | 9.7 | 11.3 | 0.00 | 0.00 | 0.00 | 44 | 1011.8 |
| 20260501222003 | 17 | 132 | 14.5 | 20.9 | 0.00 | 0.00 | 0.00 | 43 | 1011.9 |
| 20260501221503 | 17 | 236 | 9.7 | 20.9 | 0.00 | 0.00 | 0.00 | 43 | 1012.0 |
| 20260501221003 | 17 | 157 | 8.0 | 24.1 | 0.00 | 0.00 | 0.00 | 44 | 1012.0 |
| 20260501220503 | 17 | 338 | 9.7 | 14.5 | 0.00 | 0.00 | 0.00 | 44 | 1012.1 |
| 20260501220003 | 17 | 264 | 12.9 | 20.9 | 0.00 | 0.00 | 0.00 | 43 | 1012.1 |
| 20260501215504 | 17 | 186 | 6.4 | 11.3 | 0.00 | 0.00 | 0.00 | 44 | 1012.1 |
| 20260501215004 | 17 | 260 | 11.3 | 19.3 | 0.00 | 0.00 | 0.00 | 43 | 1012.2 |
| 20260501214503 | 17 | 202 | 11.3 | 24.1 | 0.00 | 0.00 | 0.00 | 43 | 1012.2 |
| 20260501213503 | 17 | 242 | 19.3 | 27.4 | 0.00 | 0.00 | 0.00 | 44 | 1012.3 |
| 20260501213004 | 17 | 159 | 8.0 | 24.1 | 0.00 | 0.00 | 0.00 | 44 | 1012.3 |
| 20260501212503 | 17 | 266 | 3.2 | 16.1 | 0.00 | 0.00 | 0.00 | 46 | 1012.4 |
| 20260501212004 | 17 | 240 | 16.1 | 27.4 | 0.00 | 0.00 | 0.00 | 44 | 1012.5 |
| 20260501211503 | 17 | 104 | 11.3 | 19.3 | 0.00 | 0.00 | 0.00 | 45 | 1012.4 |
| 20260501211004 | 17 | 269 | 4.8 | 20.9 | 0.00 | 0.00 | 0.00 | 46 | 1012.5 |
| 20260501210504 | 17 | 237 | 4.8 | 16.1 | 0.00 | 0.00 | 0.00 | 45 | 1012.6 |
| 20260501210004 | 17 | 226 | 8.0 | 12.9 | 0.00 | 0.00 | 0.00 | 44 | 1012.5 |
| 20260501205004 | 17 | 194 | 12.9 | 19.3 | 0.00 | 0.00 | 0.00 | 45 | 1012.6 |
| 20260501204003 | 17 | 283 | 11.3 | 16.1 | 0.00 | 0.00 | 0.00 | 44 | 1012.8 |
| 20260501203504 | 17 | 224 | 6.4 | 24.1 | 0.00 | 0.00 | 0.00 | 44 | 1012.8 |
| 20260501203004 | 17 | 234 | 11.3 | 16.1 | 0.00 | 0.00 | 0.00 | 44 | 1013.0 |
| 20260501202003 | 17 | 209 | 4.8 | 11.3 | 0.00 | 0.00 | 0.00 | 44 | 1013.1 |
| 20260501201504 | 17 | 203 | 11.3 | 14.5 | 0.00 | 0.00 | 0.00 | 42 | 1013.2 |
| 20260501201003 | 17 | 228 | 19.3 | 22.5 | 0.00 | 0.00 | 0.00 | 43 | 1013.2 |
| 20260501200503 | 17 | 224 | 14.5 | 19.3 | 0.00 | 0.00 | 0.00 | 43 | 1013.2 |
| 20260501200004 | 17 | 271 | 11.3 | 22.5 | 0.00 | 0.00 | 0.00 | 42 | 1013.4 |
| 20260501195504 | 17 | 288 | 11.3 | 16.1 | 0.00 | 0.00 | 0.00 | 42 | 1013.4 |
| 20260501195004 | 17 | 239 | 11.3 | 16.1 | 0.00 | 0.00 | 0.00 | 45 | 1013.4 |
| 20260501194504 | 17 | 222 | 9.7 | 25.7 | 0.00 | 0.00 | 0.00 | 43 | 1013.7 |
| 20260501194004 | 17 | 200 | 14.5 | 29.0 | 0.00 | 0.00 | 0.00 | 42 | 1013.8 |
| 20260501193503 | 17 | 251 | 14.5 | 20.9 | 0.00 | 0.00 | 0.00 | 42 | 1013.8 |
| 20260501193004 | 17 | 198 | 16.1 | 35.4 | 0.00 | 0.00 | 0.00 | 40 | 1014.0 |
| 20260501192504 | 17 | 198 | 17.7 | 35.4 | 0.00 | 0.00 | 0.00 | 44 | 1014.0 |
| 20260501192003 | 17 | 220 | 11.3 | 22.5 | 0.00 | 0.00 | 0.00 | 42 | 1014.0 |
| 20260501191504 | 17 | 261 | 9.7 | 24.1 | 0.00 | 0.00 | 0.00 | 43 | 1014.2 |
| 20260501191004 | 17 | 251 | 19.3 | 29.0 | 0.00 | 0.00 | 0.00 | 42 | 1014.3 |
| 20260501190004 | 17 | 187 | 9.7 | 19.3 | 0.00 | 0.00 | 0.00 | 43 | 1014.4 |
| 20260501185504 | 17 | 161 | 22.5 | 29.0 | 0.00 | 0.00 | 0.00 | 42 | 1014.5 |
| 20260501185004 | 17 | 236 | 19.3 | 24.1 | 0.00 | 0.00 | 0.00 | 44 | 1014.5 |
| 20260501184504 | 17 | 210 | 14.5 | 24.1 | 0.00 | 0.00 | 0.00 | 44 | 1014.6 |
| 20260501184004 | 17 | 230 | 19.3 | 25.7 | 0.00 | 0.00 | 0.00 | 44 | 1014.6 |